Regional Weather Roundup
Issued by NWS Upton, NY

Current Version | Previous Version | Graphics & Text | Print | Product List | Glossary Off
Versions: 1 2 3 4 5 6 7 8 9 10 11 12 13 14 15 16 17 18 19 20 21 22 23 24 25 26 27

000
ASUS41 KOKX 261308
RWROKX

REGIONAL WEATHER ROUNDUP
NATIONAL WEATHER SERVICE NEW YORK NY
800 AM EST SUN FEB 26 2017

NOTE: "FAIR" INDICATES FEW OR NO CLOUDS BELOW 12,000 FEET WITH NO
SIGNIFICANT WEATHER AND/OR OBSTRUCTIONS TO VISIBILITY.

NYZ071-072-176-178-NJZ106-104-261400-
NEW YORK CITY METRO AREA

CITY           SKY/WX    TMP DP  RH WIND       PRES   REMARKS
Central Park   CLOUDY    36  18  48 W13G23    29.95R WCI  27
Wall St Helipt NOT AVBL
LaGuardia APRT PTSUNNY   39  19  44 W18G28    29.93R WCI  30
Kennedy INTL   PTSUNNY   38  19  46 NW26G38   29.94R WCI  26
Breezy Point     N/A     36 N/A N/A NW15G24     N/A  WCI  26
Newark/Liberty PTSUNNY   38  19  46 NW13G22   29.94R WCI  30
Teterboro      CLOUDY    38  19  46 NW15      29.93R WCI  29
$$

NYZ177-179-078>081-261400-
LONG ISLAND NEW YORK

CITY           SKY/WX    TMP DP  RH WIND       PRES   REMARKS
Jones Beach      N/A     37 N/A N/A NW21G28     N/A  WCI  27
Matinecock PT  NOT AVBL
Farmingdale    CLOUDY    37  19  48 NW15G23   29.92R WCI  28
MacArthur/ISP  PTSUNNY   38  21  50 W16G23    29.89R WCI  29
Shirley        SUNNY     38  20  48 NW13G23   29.90R WCI  30
Westhampton    SUNNY     38  19  46 NW17G25   29.90R WCI  28
Southampton    NOT AVBL
Bridgehampton  NOT AVBL
East Hampton   PTSUNNY   38  22  51 W8G18     29.86R WCI  32
Montauk          N/A     39  23  52 W12G25    29.86R WCI  32
$$

NYZ052-065-067-261400-
HUDSON VALLEY

CITY           SKY/WX    TMP DP  RH WIND       PRES   REMARKS
White Plains   PTSUNNY   35  17  47 W20G29    29.89R WCI  24
Newburgh       PTSUNNY   32  21  64 NW14G23   29.92R WCI  22
Montgomery     CLOUDY    34  17  50 NW10G28   29.92R WCI  26
Poughkeepsie   CLOUDY    33  16  49 NW12G23   29.92R WCI  24
Albany         CLOUDY    32  20  61 W15G32    29.89R WCI  22
$$

NJZ001-105-106-008-010-013-015-019>022-104-261400-
NEW JERSEY

CITY           SKY/WX    TMP DP  RH WIND       PRES   REMARKS
Newark/Liberty PTSUNNY   38  19  46 NW13G22   29.94R WCI  30
Teterboro      CLOUDY    38  19  46 NW15      29.93R WCI  29
Caldwell       CLOUDY    37  17  44 NW15G25   29.94R WCI  28
Somerville     CLOUDY    36  17  46 W9        29.95R WCI  29
Linden         NOT AVBL
Sussex         CLOUDY    34  15  46 W15G26    29.94R WCI  24
Andover          N/A     33  17  51 N10G16    29.94R WCI  25
Trenton        CLOUDY    36  18  48 W14G26    29.97R WCI  27
Millville      CLOUDY    36  20  52 NW15G32   30.02R WCI  27
Atlantic City  SUNNY     38  20  48 W14       29.99R WCI  30
Wrightstown    CLOUDY    37  20  51 NW15G22   29.95R WCI  28
Toms River     CLOUDY    38  21  50 NW16G23   29.97R WCI  29
Belmar         PTSUNNY   36  19  50 NW15G21   29.96R WCI  27
$$

PAZ047>061-062-071-261400-
EASTERN PENNSYLVANIA

CITY           SKY/WX    TMP DP  RH WIND       PRES   REMARKS
Philadelphia   PTSUNNY   37  19  48 NW17      30.02R WCI  27
Allentown      CLOUDY    35  16  45 NW18G25   29.98R WCI  24
Scranton       CLOUDY    30  18  60 N17G25    29.96R WCI  18
$$

CTZ002-004>006-009-010-012-RIZ004-006-007-MAZ004-011-015-261400-
SOUTHERN NEW ENGLAND
 IN CT

CITY           SKY/WX    TMP DP  RH WIND       PRES   REMARKS
Bradley INTL   PTSUNNY   35  17  47 NW20G28   29.85R WCI  24
Hartford       MOSUNNY   37  19  48 NW10G22   29.87R WCI  30
Danbury        CLOUDY    34  17  50 W16G29    29.90R WCI  24
Wtrbury/Oxford PTSUNNY   34  16  47 NW12G23   29.86R WCI  25
Bridgeport     CLOUDY    39  20  46 W12       29.89R WCI  32
Meriden        CLOUDY    37  18  46 NW13      29.87R WCI  29
New Haven      CLOUDY    37  20  50 NW16G23   29.88R WCI  28
Chester        CLOUDY    36  19  51 NW10G20   29.84R WCI  28
Groton         SUNNY     38  21  50 NW17G25   29.84R WCI  28
Wilimantic     MOSUNNY   38  19  46 W12G28    29.83R WCI  30

 IN RI

CITY           SKY/WX    TMP DP  RH WIND       PRES   REMARKS
Providence     MOSUNNY   38  18  44 W20G26    29.81R WCI  28
Block Island   MOSUNNY   39  24  55 NW15G24   29.83R WCI  31
Westerly       SUNNY     39  18  42 W9G23     29.84R WCI  33
 IN MA

CITY           SKY/WX    TMP DP  RH WIND       PRES   REMARKS
Boston         PTSUNNY   38  21  50 W18G30    29.75R WCI  28
Worcester      CLOUDY    31  16  54 W22G36    29.73R WCI  18
Westfield      CLOUDY    34  19  54 NW20G30   29.83R WCI  23
Provincetown   CLOUDY    40  26  57 W22G29    29.74R WCI  30
Nantucket      SUNNY     40  25  55 W22G30    29.77R WCI  30
$$

ANZ330-335-338-340-345-350-353-355-261400-
COASTAL MARINE OBSERVATIONS


STATION/POSITION TIME  SKY/WX   TEMP    WIND        PRES    VSBY  WAVE
                                AIR SEA DIR/SP/G                  HT/PER
                 (UTC)          (F)     (DEG/KT/KT) (MB)    (MI)  (FT/S)
NY HARB ENTRANCE 1150            39 43  310/ 23/ 27 1011.2          5/11
20 S FIRE ISLAND 1150            40 43  310/ 23/ 27 1010.5          6/11
GREAT SOUTH BAY  NOT AVBL
23 SSW MONTAUK P 1150            40 44              1009.4          6/10
15 E BARNEGAT LI 1230               44                N/A           5/11
HUDSON CANYON    1150               48              1010.8          9/ 7
KINGS POINT      1230            37 40              1012.9
EXECUTION ROCKS  NOT AVBL
CENTRAL LI SOUND 1215            38     290/ 16/ 19   N/A           3/ 5
EASTERN LI SOUND NOT AVBL
ROBBINS REEF     1230            37     310/ 18/ 25 1013.5
$$


>>>>>>>>>>>>>>>>>>>>>>>>>>>> KEY <<<<<<<<<<<<<<<<<<<<<<<<<<<
>                                                          <
>     SKY/WX - Sky Condition/Present Weather               <
>     TMP    - Temperature in Fahrenheit                   <
>     DP     - Dew Point in Fahrenheit                     <
>     RH     - Relative Humidity in Percent                <
>     WIND   - Direction (from) and Speed in MPH           <
>     PRES   - Mean Sea Level Pressure (inches of Hg)      <
>     WCI    - Wind Chill Index                            <
>     VSB    - VISIBILITY IN MILES                         <
>     HX     - HEAT INDEX                                  <
>     TC     - TEMPERATURE IN CELSIUS                      <
>     VRB    - VARIABLE WIND DIRECTION                     <
>                                                          <
>>>>>>>>>>>>>>>>>>>>>>>>>>>> KEY <<<<<<<<<<<<<<<<<<<<<<<<<<<




USA.gov is the U.S. government's official web portal to all federal, state and local government web resources and services.